| time (UTC) | temp C | wind direction | speed KPH | gust KPH | rain 1hr cm | rain 24hr cm | rain mn cm | humidity % | barometer mb |
| 20260510224522 | 25 | 160 | 0.0 | 0.0 | 0.00 | 0.00 | 0.08 | 57 | 1014.9 |
| 20260510223017 | 25 | 160 | 0.0 | 0.0 | 0.00 | 0.00 | 0.08 | 57 | 1015.0 |
| 20260510221513 | 25 | 160 | 0.0 | 0.0 | 0.00 | 0.00 | 0.08 | 56 | 1014.9 |
| 20260510220010 | 25 | 160 | 0.0 | 0.0 | 0.00 | 0.00 | 0.08 | 56 | 1014.9 |
| 20260510214505 | 25 | 160 | 0.0 | 0.0 | 0.00 | 0.00 | 0.08 | 56 | 1014.9 |
| 20260510213107 | 25 | 160 | 0.0 | 0.0 | 0.00 | 0.00 | 0.08 | 56 | 1015.0 |
| 20260510211556 | 25 | 160 | 0.0 | 0.0 | 0.00 | 0.00 | 0.05 | 56 | 1015.0 |
| 20260510210051 | 25 | 159 | 0.0 | 0.0 | 0.00 | 0.00 | 0.05 | 55 | 1015.0 |
| 20260510204553 | 25 | 159 | 0.0 | 0.0 | 0.00 | 0.00 | 0.05 | 54 | 1015.1 |
| 20260510203043 | 25 | 159 | 0.0 | 0.0 | 0.00 | 0.00 | 0.05 | 53 | 1015.0 |
| 20260510201538 | 24 | 160 | 0.0 | 0.0 | 0.00 | 0.00 | 0.05 | 52 | 1015.2 |
| 20260510200034 | 24 | 160 | 0.0 | 0.0 | 0.00 | 0.00 | 0.05 | 50 | 1015.4 |
| 20260510194530 | 23 | 160 | 0.0 | 0.0 | 0.00 | 0.00 | 0.05 | 49 | 1015.6 |
| 20260510193025 | 23 | 160 | 0.0 | 0.0 | 0.00 | 0.00 | 0.05 | 52 | 1015.5 |
| 20260510191528 | 23 | 159 | 0.0 | 0.0 | 0.00 | 0.00 | 0.05 | 51 | 1015.6 |
| 20260510190031 | 23 | 159 | 0.0 | 0.0 | 0.00 | 0.00 | 0.05 | 46 | 1015.9 |
| 20260510184513 | 23 | 159 | 0.0 | 0.0 | 0.00 | 0.00 | 0.05 | 45 | 1016.0 |
| 20260510183008 | 24 | 160 | 0.0 | 0.0 | 0.00 | 0.00 | 0.05 | 45 | 1016.0 |
| 20260510181510 | 23 | 160 | 0.0 | 0.0 | 0.00 | 0.00 | 0.05 | 46 | 1016.0 |
| 20260510174557 | 23 | 123 | 0.0 | 0.0 | 0.00 | 0.00 | 0.05 | 38 | 1016.5 |
| 20260510173108 | 23 | 123 | 0.0 | 0.0 | 0.00 | 0.00 | 0.05 | 37 | 1016.9 |
| 20260510171547 | 23 | 123 | 0.0 | 0.0 | 0.00 | 0.00 | 0.05 | 36 | 1016.9 |
| 20260510170043 | 22 | 152 | 0.0 | 0.0 | 0.00 | 0.00 | 0.05 | 20 | 1016.9 |
| 20260510164558 | 22 | 152 | 0.0 | 0.0 | 0.00 | 0.00 | 0.05 | 26 | 1017.1 |
| 20260510163034 | 22 | 83 | 0.0 | 0.0 | 0.00 | 0.00 | 0.05 | 29 | 1017.1 |
| 20260510161529 | 22 | 82 | 0.0 | 0.0 | 0.00 | 0.00 | 0.05 | 18 | 1017.1 |
| 20260510160024 | 22 | 171 | 0.0 | 0.0 | 0.00 | 0.00 | 0.05 | 18 | 1017.1 |
| 20260510154521 | 21 | 173 | 0.0 | 0.0 | 0.00 | 0.00 | 0.05 | 8 | 1017.0 |
| 20260510153030 | 21 | 173 | 0.0 | 0.0 | 0.00 | 0.00 | 0.05 | 100 | 1017.1 |
| 20260510151511 | 21 | 174 | 0.0 | 0.0 | 0.00 | 0.00 | 0.05 | 100 | 1017.1 |
| 20260510150007 | 20 | 174 | 0.0 | 0.0 | 0.00 | 0.00 | 0.05 | 100 | 1017.2 |
| 20260510144506 | 19 | 174 | 0.0 | 0.0 | 0.00 | 0.00 | 0.05 | 100 | 1017.2 |
| 20260510143059 | 18 | 174 | 0.0 | 0.0 | 0.00 | 0.00 | 0.03 | 100 | 1017.3 |
| 20260510141554 | 18 | 174 | 0.0 | 0.0 | 0.00 | 0.00 | 0.03 | 100 | 1017.5 |
| 20260510140050 | 17 | 174 | 0.0 | 0.0 | 0.00 | 0.00 | 0.03 | 100 | 1017.5 |
| 20260510134552 | 17 | 173 | 0.0 | 0.0 | 0.00 | 0.00 | 0.03 | 100 | 1017.4 |
| 20260510133040 | 17 | 173 | 0.0 | 0.0 | 0.00 | 0.00 | 0.03 | 100 | 1017.3 |
| 20260510131537 | 17 | 173 | 0.0 | 0.0 | 0.00 | 0.00 | 0.03 | 100 | 1017.0 |
| 20260510130032 | 17 | 174 | 0.0 | 0.0 | 0.00 | 0.00 | 0.03 | 100 | 1017.0 |
| 20260510124527 | 17 | 173 | 0.0 | 0.0 | 0.00 | 0.00 | 0.03 | 100 | 1016.6 |
| 20260510123023 | 17 | 173 | 0.0 | 0.0 | 0.00 | 0.00 | 0.03 | 100 | 1016.5 |
| 20260510121519 | 17 | 174 | 0.0 | 0.0 | 0.00 | 0.00 | 0.03 | 100 | 1016.1 |
| 20260510120014 | 17 | 173 | 0.0 | 0.0 | 0.00 | 0.00 | 0.03 | 100 | 1015.8 |
| 20260510114510 | 17 | 174 | 0.0 | 0.0 | 0.00 | 0.00 | 0.03 | 100 | 1015.7 |
| 20260510113009 | 17 | 173 | 0.0 | 0.0 | 0.00 | 0.00 | 0.03 | 100 | 1015.3 |
| 20260510111501 | 17 | 173 | 0.0 | 0.0 | 0.00 | 0.00 | 0.03 | 100 | 1015.0 |
| 20260510110101 | 17 | 173 | 0.0 | 0.0 | 0.00 | 0.00 | 0.03 | 100 | 1015.0 |
| 20260510104608 | 17 | 173 | 0.0 | 0.0 | 0.00 | 0.00 | 0.03 | 100 | 1014.8 |
| 20260510103052 | 17 | 173 | 0.0 | 0.0 | 0.00 | 0.00 | 0.03 | 100 | 1014.5 |
| 20260510101544 | 17 | 173 | 0.0 | 0.0 | 0.00 | 0.00 | 0.03 | 100 | 1014.4 |
| 20260510100051 | 17 | 173 | 0.0 | 0.0 | 0.00 | 0.00 | 0.03 | 100 | 1014.2 |
| 20260510094544 | 17 | 173 | 0.0 | 0.0 | 0.00 | 0.00 | 0.03 | 100 | 1014.0 |
| 20260510093031 | 17 | 173 | 0.0 | 0.0 | 0.00 | 0.00 | 0.03 | 100 | 1013.8 |
| 20260510091528 | 16 | 174 | 0.0 | 0.0 | 0.00 | 0.00 | 0.03 | 100 | 1013.7 |
| 20260510090022 | 16 | 174 | 0.0 | 0.0 | 0.00 | 0.00 | 0.03 | 100 | 1013.6 |
| 20260510084517 | 16 | 174 | 0.0 | 0.0 | 0.00 | 0.00 | 0.03 | 100 | 1013.5 |
| 20260510083015 | 16 | 174 | 0.0 | 0.0 | 0.00 | 0.00 | 0.03 | 100 | 1013.4 |
| 20260510081509 | 16 | 174 | 0.0 | 0.0 | 0.00 | 0.00 | 0.03 | 100 | 1013.3 |
| 20260510080008 | 16 | 174 | 0.0 | 0.0 | 0.00 | 0.00 | 0.03 | 100 | 1013.2 |
| 20260510074624 | 16 | 174 | 0.0 | 0.0 | 0.00 | 0.00 | 0.03 | 100 | 1013.0 |
| 20260510073056 | 15 | 174 | 0.0 | 0.0 | 0.00 | 0.00 | 0.03 | 100 | 1013.0 |
| 20260510071558 | 15 | 174 | 0.0 | 0.0 | 0.00 | 0.00 | 0.03 | 100 | 1013.3 |
| 20260510070047 | 15 | 174 | 0.0 | 0.0 | 0.00 | 0.00 | 0.03 | 100 | 1013.4 |
| 20260510064602 | 15 | 174 | 0.0 | 0.0 | 0.00 | 0.00 | 0.03 | 100 | 1013.4 |
| 20260510063039 | 15 | 174 | 0.0 | 0.0 | 0.00 | 0.00 | 0.03 | 100 | 1013.4 |
| 20260510061537 | 15 | 174 | 0.0 | 0.0 | 0.00 | 0.00 | 0.03 | 100 | 1013.5 |
| 20260510060034 | 15 | 174 | 0.0 | 0.0 | 0.00 | 0.00 | 0.03 | 100 | 1013.6 |
| 20260510054526 | 15 | 174 | 0.0 | 0.0 | 0.00 | 0.00 | 0.03 | 100 | 1013.7 |
| 20260510053021 | 15 | 174 | 0.0 | 0.0 | 0.00 | 0.00 | 0.00 | 100 | 1013.7 |
| 20260510051520 | 15 | 174 | 0.0 | 0.0 | 0.00 | 0.00 | 0.00 | 100 | 1013.6 |
| 20260510050012 | 16 | 174 | 0.0 | 0.0 | 0.00 | 0.00 | 0.05 | 100 | 1013.8 |
| 20260510044514 | 16 | 174 | 0.0 | 0.0 | 0.00 | 0.00 | 0.05 | 100 | 1013.8 |
| 20260510043004 | 16 | 174 | 0.0 | 0.0 | 0.00 | 0.00 | 0.05 | 100 | 1013.9 |
| 20260510041611 | 16 | 174 | 0.0 | 0.0 | 0.00 | 0.00 | 0.05 | 100 | 1013.9 |
| 20260510040055 | 16 | 174 | 0.0 | 0.0 | 0.00 | 0.00 | 0.05 | 100 | 1013.8 |
| 20260510034551 | 16 | 174 | 0.0 | 0.0 | 0.00 | 0.00 | 0.05 | 100 | 1013.9 |
| 20260510033048 | 17 | 174 | 0.0 | 0.0 | 0.00 | 0.00 | 0.05 | 100 | 1013.9 |
| 20260510031542 | 17 | 174 | 0.0 | 0.0 | 0.00 | 0.00 | 0.05 | 100 | 1013.9 |
| 20260510030037 | 17 | 174 | 0.0 | 0.0 | 0.00 | 0.00 | 0.05 | 100 | 1013.8 |
| 20260510024539 | 17 | 174 | 0.0 | 0.0 | 0.00 | 0.00 | 0.05 | 100 | 1013.7 |
| 20260510023029 | 17 | 174 | 0.0 | 0.0 | 0.00 | 0.00 | 0.05 | 100 | 1013.5 |
| 20260510021523 | 17 | 173 | 0.0 | 0.0 | 0.00 | 0.00 | 0.05 | 100 | 1013.4 |
| 20260510020019 | 18 | 173 | 0.0 | 0.0 | 0.00 | 0.00 | 0.05 | 100 | 1013.0 |
| 20260510014521 | 18 | 173 | 0.0 | 0.0 | 0.00 | 0.00 | 0.05 | 100 | 1012.9 |
| 20260510013011 | 18 | 173 | 0.0 | 0.0 | 0.00 | 0.00 | 0.05 | 100 | 1012.8 |
| 20260510011508 | 18 | 173 | 0.0 | 0.0 | 0.00 | 0.00 | 0.05 | 100 | 1012.5 |
| 20260510010002 | 18 | 173 | 0.0 | 0.0 | 0.00 | 0.00 | 0.05 | 100 | 1012.2 |
| 20260510004603 | 19 | 173 | 0.0 | 0.0 | 0.00 | 0.00 | 0.05 | 100 | 1012.1 |
| 20260510003056 | 19 | 173 | 0.0 | 0.0 | 0.00 | 0.00 | 0.05 | 100 | 1011.9 |
| 20260510001549 | 20 | 173 | 0.0 | 0.0 | 0.00 | 0.00 | 0.05 | 100 | 1011.9 |
| 20260510000046 | 20 | 173 | 0.0 | 0.0 | 0.00 | 0.00 | 0.05 | 100 | 1011.7 |
| 20260509234558 | 20 | 173 | 0.0 | 0.0 | 0.00 | 0.00 | 0.05 | 100 | 1011.4 |
| 20260509233036 | 20 | 173 | 0.0 | 0.0 | 0.00 | 0.00 | 0.05 | 100 | 1011.2 |
| 20260509231534 | 21 | 173 | 0.0 | 0.0 | 0.00 | 0.00 | 0.05 | 100 | 1011.1 |
| 20260509230028 | 21 | 173 | 0.0 | 0.0 | 0.00 | 0.00 | 0.05 | 100 | 1011.1 |